User: anonymous   Login
Location: Newark
(44.6028°N, 124.0883°W)
Time: 10:31:36
(UTC+00:00)
Language:

Tiros 1 - Orbit

View from above orbital plane
View from above orbital plane
View from above satellite
View from above satellite

Ground track
Ground track

The orbit data is extracted from the following two-line orbital elements,

1    29U 60002B   19288.72398795 -.00000110 +00000-0 +14621-4 0  9998
2    29 048.3812 028.2615 0024612 261.1331 098.6794 14.74322672182287
Epoch (UTC): 15 October 2019 17:22:32
Eccentricity: 0.0024612
inclination: 48.3812°
perigee height: 630 km
apogee height: 664 km
right ascension of ascending node: 28.2615°
argument of perigee: 261.1331°
revolutions per day: 14.74322672
mean anomaly at epoch: 98.6794°
orbit number at epoch: 18228

The dashed part of the orbit path shows where the satellite is in the earth's shadow,  

DLR